Weather History for KFOZ - October, 2012

Change the Weather History Date:

Tuesday, October 2, 2012

  Actual Average (KGPZ) Record (KGPZ)
Temperature  
Mean Temperature 50 °F -  
Max Temperature 71 °F 63 °F 84 °F (1953)
Min Temperature 28 °F 36 °F 17 °F (1974)
Degree Days  
Heating Degree Days 16    
Moisture  
Dew Point 31 °F    
Average Humidity 54    
Maximum Humidity 93    
Minimum Humidity 19    
Precipitation  
Precipitation 0.00 in - - ()
Sea Level Pressure  
Sea Level Pressure 29.85 in    
Wind  
Wind Speed 5 mph (South)    
Max Wind Speed 22 mph    
Max Gust Speed 29 mph    
Visibility 10 miles    
Events      
Averages and records for this station are not official NWS values.
T = Trace of Precipitation, MM = Missing Value Source: NWS Daily Summary

Daily Weather History Graph

Daily Weather History Graph

Search for Another Location

Airport or City:

Trip Planner

Search our weather history database for the weather conditions in past years. The results will help you decide how hot, cold, wet, or windy it might be!

Date:

Astronomy

Oct. 02, 2012 Rise Set
Actual Time 7:15 AM CDT 6:50 PM CDT
Civil Twilight 6:45 AM CDT 7:21 PM CDT
Nautical Twilight 6:09 AM CDT 7:57 PM CDT
Astronomical Twilight 5:32 AM CDT 8:33 PM CDT
Moon 7:48 PM CDT (10/2) 9:58 AM CDT (10/2)
Length of Visible Light 12h 36m
Length of Day
11h 34m
Waning Gibbous, 94% of the Moon is Illuminated
Oct 2
Waning Gibbous
Oct 8
Last Quarter
Oct 15
New
Oct 21
First Quarter
Oct 29
Full

Hourly Weather History & Observations

Time (CDT) Temp. Windchill Dew Point Humidity Pressure Visibility Wind Dir Wind Speed Gust Speed Precip Events Conditions
12:13 AM 33.8 °F - 28.4 °F 81% 29.98 in 10.0 mi Calm Calm - N/A   Clear
12:33 AM 30.2 °F - 28.4 °F 93% 29.97 in 10.0 mi Calm Calm - N/A   Clear
12:53 AM 30.2 °F - 28.4 °F 93% 29.96 in 10.0 mi Calm Calm - N/A   Clear
1:13 AM 30.2 °F - 26.6 °F 86% 29.96 in 10.0 mi Calm Calm - N/A   Clear
1:33 AM 30.2 °F - 28.4 °F 93% 29.96 in 10.0 mi Calm Calm - N/A   Clear
2:13 AM 30.2 °F - 26.6 °F 86% 29.95 in 10.0 mi Calm Calm - N/A   Clear
2:33 AM 30.2 °F - 26.6 °F 86% 29.95 in 10.0 mi Calm Calm - N/A   Clear
2:53 AM 28.4 °F - 26.6 °F 93% 29.95 in 10.0 mi Calm Calm - N/A   Clear
3:13 AM 28.4 °F - 26.6 °F 93% 29.95 in 10.0 mi Calm Calm - N/A   Clear
3:33 AM 28.4 °F - 26.6 °F 93% 29.95 in 10.0 mi Calm Calm - N/A   Clear
3:53 AM 28.4 °F - 26.6 °F 93% 29.95 in 10.0 mi Calm Calm - N/A   Clear
4:13 AM 28.4 °F - 26.6 °F 93% 29.94 in 10.0 mi Calm Calm - N/A   Clear
4:33 AM 28.4 °F - 24.8 °F 86% 29.94 in 10.0 mi Calm Calm - N/A   Clear
4:53 AM 28.4 °F - 24.8 °F 86% 29.94 in 10.0 mi Calm Calm - N/A   Clear
5:13 AM 28.4 °F - 24.8 °F 86% 29.94 in 10.0 mi Calm Calm - N/A   Clear
5:33 AM 28.4 °F - 24.8 °F 86% 29.94 in 10.0 mi Calm Calm - N/A   Clear
5:53 AM 28.4 °F - 24.8 °F 86% 29.94 in 10.0 mi Calm Calm - N/A   Clear
6:13 AM 28.4 °F - 24.8 °F 86% 29.95 in 10.0 mi Calm Calm - N/A   Clear
6:53 AM 28.4 °F - 24.8 °F 86% 29.95 in 10.0 mi Calm Calm - N/A   Clear
7:13 AM 28.4 °F - 24.8 °F 86% 29.94 in 10.0 mi Calm Calm - N/A   Clear
7:33 AM 28.4 °F - 26.6 °F 93% 29.94 in 10.0 mi Calm Calm - N/A   Clear
8:13 AM 33.8 °F - 30.2 °F 87% 29.94 in 10.0 mi Calm Calm - N/A   Clear
8:33 AM 37.4 °F - 33.8 °F 87% 29.93 in 10.0 mi Calm Calm - N/A   Clear
8:53 AM 42.8 °F - 37.4 °F 81% 29.93 in 10.0 mi Calm Calm - N/A   Clear
9:13 AM 46.4 °F 43.5 °F 39.2 °F 76% 29.92 in 10.0 mi South 5.8 mph - N/A   Clear
9:33 AM 48.2 °F - 39.2 °F 71% 29.92 in 10.0 mi South 3.5 mph - N/A   Clear
9:53 AM 53.6 °F - 39.2 °F 58% 29.91 in 10.0 mi South 6.9 mph - N/A   Clear
10:13 AM 57.2 °F - 37.4 °F 48% 29.90 in 10.0 mi South 11.5 mph 19.6 mph N/A   Clear
10:33 AM 60.8 °F - 37.4 °F 42% 29.89 in 10.0 mi South 11.5 mph 18.4 mph N/A   Clear
10:53 AM 62.6 °F - 35.6 °F 37% 29.88 in 10.0 mi South 13.8 mph 18.4 mph N/A   Clear
11:13 AM 62.6 °F - 35.6 °F 37% 29.87 in 10.0 mi South 16.1 mph 23.0 mph N/A   Clear
11:33 AM 64.4 °F - 35.6 °F 34% 29.86 in 10.0 mi South 15.0 mph 24.2 mph N/A   Clear
11:53 AM 64.4 °F - 33.8 °F 32% 29.85 in 10.0 mi South 16.1 mph 26.5 mph N/A   Clear
12:13 PM 66.2 °F - 33.8 °F 30% 29.84 in 10.0 mi SSW 19.6 mph 25.3 mph N/A   Clear
12:33 PM 66.2 °F - 33.8 °F 30% 29.83 in 10.0 mi South 21.9 mph 26.5 mph N/A   Clear
12:53 PM 66.2 °F - 32.0 °F 28% 29.82 in 10.0 mi SSW 20.7 mph 26.5 mph N/A   Clear
1:13 PM 68.0 °F - 32.0 °F 26% 29.81 in 10.0 mi South 18.4 mph 28.8 mph N/A   Clear
1:34 PM 69.8 °F - 30.2 °F 23% 29.80 in 10.0 mi South 18.4 mph 24.2 mph N/A   Clear
1:53 PM 68.0 °F - 30.2 °F 24% 29.79 in 10.0 mi South 21.9 mph 28.8 mph N/A   Clear
2:13 PM 69.8 °F - 30.2 °F 23% 29.79 in 10.0 mi South 18.4 mph 26.5 mph N/A   Clear
2:33 PM 69.8 °F - 30.2 °F 23% 29.78 in 10.0 mi South 15.0 mph 26.5 mph N/A   Clear
2:53 PM 71.6 °F - 28.4 °F 20% 29.77 in 10.0 mi South 20.7 mph 27.6 mph N/A   Clear
3:13 PM 71.6 °F - 26.6 °F 19% 29.77 in 10.0 mi South 18.4 mph 27.6 mph N/A   Clear
3:33 PM 71.6 °F - 26.6 °F 19% 29.76 in 10.0 mi South 21.9 mph 26.5 mph N/A   Clear
3:53 PM 71.6 °F - 26.6 °F 19% 29.76 in 10.0 mi SSW 20.7 mph 27.6 mph N/A   Clear
4:13 PM 71.6 °F - 26.6 °F 19% 29.76 in 10.0 mi SSW 13.8 mph 23.0 mph N/A   Clear
4:33 PM 69.8 °F - 28.4 °F 21% 29.74 in 10.0 mi South 16.1 mph 25.3 mph N/A   Clear
4:53 PM 69.8 °F - 28.4 °F 21% 29.73 in 10.0 mi South 17.3 mph 26.5 mph N/A   Clear
5:13 PM 69.8 °F - 28.4 °F 21% 29.74 in 10.0 mi South 13.8 mph 25.3 mph N/A   Clear
5:33 PM 68.0 °F - 30.2 °F 24% 29.74 in 10.0 mi South 15.0 mph 28.8 mph N/A   Clear
5:53 PM 66.2 °F - 30.2 °F 26% 29.75 in 10.0 mi South 11.5 mph 18.4 mph N/A   Clear
6:13 PM 66.2 °F - 30.2 °F 26% 29.75 in 10.0 mi South 10.4 mph 17.3 mph N/A   Clear
6:33 PM 64.4 °F - 30.2 °F 28% 29.76 in 10.0 mi South 11.5 mph 16.1 mph N/A   Clear
7:13 PM 60.8 °F - 32.0 °F 34% 29.77 in 10.0 mi South 8.1 mph - N/A   Clear
7:33 PM 60.8 °F - 32.0 °F 34% 29.78 in 10.0 mi South 5.8 mph - N/A   Clear
7:53 PM 57.2 °F - 33.8 °F 41% 29.78 in 10.0 mi South 6.9 mph - N/A   Clear
8:13 PM 57.2 °F - 33.8 °F 41% 29.79 in 10.0 mi South 5.8 mph - N/A   Clear
8:33 PM 57.2 °F - 33.8 °F 41% 29.79 in 10.0 mi South 6.9 mph - N/A   Clear
8:53 PM 57.2 °F - 33.8 °F 41% 29.79 in 10.0 mi South 8.1 mph - N/A   Clear
9:13 PM 57.2 °F - 33.8 °F 41% 29.79 in 10.0 mi South 8.1 mph - N/A   Clear
9:33 PM 57.2 °F - 33.8 °F 41% 29.79 in 10.0 mi South 8.1 mph - N/A   Clear
9:53 PM 55.4 °F - 32.0 °F 41% 29.79 in 10.0 mi South 6.9 mph - N/A   Clear
10:13 PM 55.4 °F - 32.0 °F 41% 29.80 in 10.0 mi South 6.9 mph - N/A   Clear
10:33 PM 55.4 °F - 32.0 °F 41% 29.80 in 10.0 mi SSE 4.6 mph - N/A   Clear
10:53 PM 55.4 °F - 33.8 °F 44% 29.80 in 10.0 mi South 4.6 mph - N/A   Clear
11:13 PM 53.6 °F - 35.6 °F 51% 29.80 in 10.0 mi South 4.6 mph - N/A   Clear
11:33 PM 51.8 °F - 35.6 °F 54% 29.81 in 10.0 mi South 4.6 mph - N/A   Clear
11:53 PM 51.8 °F - 35.6 °F 54% 29.81 in 10.0 mi South 4.6 mph - N/A   Clear